Regional Weather Roundup
Issued by NWS

Home | Current Version | Previous Version | Text Only | Print | Product List | Glossary Off
Versions: 1 2 3 4 5 6 7 8 9 10 11 12 13 14 15 16 17 18 19 20 21 22 23 24 25 26 27 28 29 30 31 32 33 34 35 36 37 38 39 40 41 42 43 44 45 46 47 48 49 50

000
ASUS43 KFSD 092310
RWRSD

WEATHER ROUNDUP FOR SOUTH DAKOTA
NATIONAL WEATHER SERVICE SIOUX FALLS SD
500 PM CST TUE FEB 09 2016

NOTE: "FAIR" INDICATES FEW OR NO CLOUDS BELOW 12,000 FEET WITH NO
SIGNIFICANT WEATHER AND/OR OBSTRUCTIONS TO VISIBILITY.


SDZ001>005-009-010-012>017-100000-
NORTHWEST AND NORTH CENTRAL SOUTH DAKOTA

CITY           SKY/WX    TMP DP  RH WIND       PRES   REMARKS
BUFFALO          N/A     49  29  46 NW12      30.04S
FAITH            N/A     42  24  49 N9        30.10S
MOBRIDGE       CLOUDY    38  18  44 CALM      30.10F
$$

SDZ012>016-024>037-041>051-057-063-072>074-100000-
SOUTHWEST AND SOUTH CENTRAL SOUTH DAKOTA

CITY           SKY/WX    TMP DP  RH WIND       PRES   REMARKS
RAPID CTY ARPT CLOUDY    52  29  41 N15       30.10F
PIERRE         CLOUDY    34  17  50 S6        30.16S WCI  29
CUSTER         PTSUNNY   46  23  40 NW16G30   30.14S
ELLSWORTH AFB  CLOUDY    53  29  40 N13       30.10S
PHILIP         CLOUDY    43  28  55 CALM      30.13S
PINE RIDGE     CLOUDY    44  31  60 CALM      30.14S
SPEARFISH      PTSUNNY   50  28  43 NW18G26   30.13S
WINNER         FAIR      35  16  45 S7        30.17S WCI  29
$$

SDZ004>011-016>023-039-040-100000-
NORTHEAST SOUTH DAKOTA

CITY           SKY/WX    TMP DP  RH WIND       PRES   REMARKS
ABERDEEN       CLOUDY    29  13  51 E10       30.19F WCI  20
WATERTOWN      CLOUDY    21  11  65 NW7       30.17S WCI  12
BROOKINGS      CLOUDY    20  11  68 NW14      30.18S WCI   7
SISSETON         N/A     19   9  65 N13       30.22S WCI   6
$$

SDZ017-020-022-023-036>040-048>070-100000-
SOUTHEAST SOUTH DAKOTA

CITY           SKY/WX    TMP DP  RH WIND       PRES   REMARKS
SIOUX FALLS    CLOUDY    23  12  62 NW12      30.22R WCI  12
HURON          CLOUDY    29  14  53 W3        30.20F
CHAMBERLAIN    CLOUDY    33  16  50 SW3       30.19S
MITCHELL       CLOUDY    30  14  51 N3        30.23F
YANKTON        PTCLDY    27  12  54 NW10      30.24S WCI  17
$$

ABBREVIATIONS USED IN REMARKS
   TC - TEMPERATURE IN CELSIUS
  WCI - WIND CHILL INDEX
   HX - HEAT INDEX
  VSB - VISIBILITY




USA.gov is the U.S. government's official web portal to all federal, state and local government web resources and services.